Wind_Speed
45 46 47 47 48 48 48 48 49 49 49 50 51 51 50 49 50 50 51 51 50 50 50 50 50 50 50 49 48 48 47 46 46 46 46 45 45 45 45 46 47 48 48
46 47 47 47 48 49 50 50 50 49 49 50 51 52 51 50 51 51 52 51 52 52 51 51 51 51 52 51 50 49 49 48 48 47 47 46 46 47 47 47 48 49 49
47 48 47 48 48 49 49 50 49 49 50 51 52 52 53 52 52 53 53 52 52 52 52 52 52 52 52 53 52 51 50 50 49 49 48 48 48 48 48 49 50 50 50
46 46 47 47 48 49 49 50 50 50 51 52 52 52 53 53 53 53 53 53 52 53 54 54 54 54 54 54 53 52 52 51 50 50 50 49 49 50 50 50 51 51 52
44 45 46 47 48 49 50 50 51 51 51 51 51 51 52 53 53 53 53 54 53 54 55 55 55 56 56 55 54 53 53 53 52 52 51 50 50 50 51 51 52 53 53
43 45 46 47 48 48 49 49 50 51 51 51 51 51 52 52 53 53 54 54 54 55 55 56 55 56 56 55 54 54 55 54 53 52 52 51 50 51 51 52 52 52 52
43 43 44 45 46 46 47 49 49 49 50 50 50 50 51 51 52 52 53 54 54 55 55 55 56 56 55 55 55 55 56 55 54 53 53 53 52 52 52 52 52 51 52
40 41 42 44 45 45 46 48 48 48 48 48 49 50 50 51 52 52 52 52 53 53 54 54 54 55 54 54 54 54 55 54 54 54 53 53 53 52 52 52 52 53 53
38 39 40 41 43 44 46 46 47 47 48 49 49 50 51 51 52 52 51 51 51 52 53 53 53 52 53 53 53 53 53 53 53 53 53 53 53 53 53 53 53 54 53
36 38 39 40 41 42 44 45 45 46 47 48 48 49 50 50 50 51 50 50 50 50 51 50 51 51 51 52 52 52 52 52 53 53 53 53 53 52 53 54 54 54 54
35 36 37 38 39 40 41 43 43 44 45 46 47 48 48 48 49 49 49 48 48 49 49 49 49 49 50 51 51 51 51 53 53 53 52 52 53 53 53 53 53 54 54
35 35 35 35 36 37 38 40 41 42 43 43 44 45 45 46 46 47 47 47 47 47 48 48 48 49 50 51 51 51 52 52 52 52 52 52 52 52 52 52 52 52 53
34 35 35 35 35 36 37 38 39 40 41 41 42 42 43 43 44 45 45 45 45 46 46 47 48 49 50 50 51 52 52 52 52 53 52 52 52 52 52 52 52 52 52
33 34 34 34 34 35 36 37 37 39 40 41 41 42 42 42 42 42 43 44 45 45 46 46 47 47 48 49 50 50 50 51 52 52 53 53 53 53 53 53 52 52 52
32 33 34 34 35 34 35 35 36 37 38 39 40 40 41 41 41 42 42 43 43 43 44 45 46 47 48 48 49 49 49 50 50 51 52 52 53 53 53 52 52 52 52
31 32 32 33 33 34 34 35 36 36 37 38 39 39 40 40 41 42 42 42 42 43 44 44 45 46 47 47 48 48 49 49 49 50 50 51 52 52 53 53 53 52 52
30 30 30 31 31 32 33 34 35 36 36 36 37 37 38 38 39 40 41 41 41 42 43 43 44 44 45 46 46 47 47 47 48 48 49 49 50 51 52 52 52 52 52
29 29 29 30 30 30 31 32 33 34 35 36 37 38 38 38 38 39 40 41 41 41 42 42 42 43 43 44 44 45 45 46 46 47 47 48 48 49 50 50 50 50 50
28 29 29 29 29 29 29 30 31 32 32 33 35 36 36 36 37 37 38 39 40 40 40 41 41 41 42 42 42 43 43 44 45 46 46 47 48 49 49 49 49 49 49
29 29 29 29 29 29 29 29 30 31 31 31 32 33 34 34 34 35 36 37 38 38 39 39 40 40 40 41 42 42 43 44 45 46 46 47 48 48 48 48 48 48 48
29 29 29 29 29 29 29 29 29 30 30 31 31 32 32 32 33 34 34 35 36 36 36 37 38 39 40 40 41 42 43 44 44 45 45 45 46 46 47 47 47 47 48
29 29 29 29 29 29 29 29 29 30 30 30 31 31 32 33 33 34 34 34 34 35 36 37 37 38 39 40 41 41 42 42 43 43 44 44 45 45 46 46 47 47 48
29 29 29 29 29 29 29 29 29 29 30 31 31 31 32 32 33 33 34 34 34 35 36 36 37 37 38 38 38 39 40 41 42 42 43 44 44 44 45 46 46 46 47
29 28 28 28 28 28 28 29 29 29 29 30 30 30 31 31 32 32 33 33 34 34 35 35 35 36 36 37 38 38 39 40 41 42 43 43 44 44 44 44 44 44 44
27 27 27 27 27 27 27 28 28 28 29 29 29 29 30 30 31 31 32 32 32 33 34 35 35 36 36 37 38 38 39 39 40 41 41 42 42 42 42 42 42 42 42
26 26 26 26 27 27 27 27 28 28 28 29 29 30 30 30 30 31 31 32 32 33 34 34 35 36 36 37 38 38 39 39 40 40 40 40 40 40 40 40 40 40 40
Wind_Direction
252 252 252 252 251 250 250 250 250 250 251 250 250 251 252 251 252 252 253 254 255 256 257 259 260 260 261 262 263 263 264 265 266 267 268 268 269 270 271 271 272 272 272
253 253 254 253 252 252 251 250 250 250 251 251 250 251 251 252 252 253 253 254 255 256 257 258 260 261 262 263 263 264 264 265 266 267 268 269 270 270 271 271 272 272 272
254 254 255 254 253 253 252 252 251 250 251 252 252 252 252 253 253 253 253 255 255 256 257 259 260 261 262 262 262 263 264 265 266 267 267 268 270 271 271 272 273 273 272
255 255 255 255 254 253 253 253 252 252 252 252 253 254 254 254 254 254 254 254 256 257 258 260 260 261 262 262 262 263 264 265 265 266 267 268 269 270 272 272 273 273 273
257 257 256 256 255 255 254 254 253 253 254 253 254 255 255 254 254 254 254 256 257 259 260 260 260 261 261 262 263 263 263 264 265 266 267 268 270 270 272 273 274 274 273
259 258 258 258 257 256 254 254 255 255 255 254 254 254 254 254 254 255 255 256 257 259 260 260 260 260 260 261 262 262 263 264 265 266 267 268 270 271 273 273 274 274 274
260 259 259 259 258 256 255 255 256 256 256 255 254 254 254 255 255 255 255 256 257 258 258 259 260 261 260 260 260 261 262 264 265 266 267 268 270 271 272 273 274 275 274
262 261 259 259 258 257 257 256 255 255 255 254 254 254 254 255 256 256 256 257 258 258 259 260 260 261 260 260 260 261 262 263 264 265 266 268 269 271 272 273 273 274 274
263 261 260 260 259 257 256 256 255 255 255 254 254 255 255 256 256 256 256 257 257 259 259 259 260 260 260 260 261 261 261 262 263 265 267 268 269 271 272 273 274 274 274
264 263 262 261 260 258 257 256 256 256 255 254 254 255 256 257 257 256 256 257 258 259 259 259 259 260 260 260 260 261 261 261 263 265 267 268 269 270 272 273 273 274 274
266 265 263 262 261 260 258 257 257 257 256 255 255 256 256 257 256 256 257 257 258 258 258 259 260 260 260 261 260 261 262 262 263 265 266 268 269 271 272 273 273 273 274
267 266 265 265 263 261 259 258 258 257 257 256 257 256 256 256 257 257 257 258 259 259 260 260 260 261 261 261 261 262 263 264 265 265 267 268 269 271 272 272 272 273 274
268 267 266 266 265 262 261 260 259 258 257 257 257 256 257 257 257 257 257 258 260 260 260 261 261 261 262 262 262 263 264 264 265 266 267 268 269 269 271 272 273 273 273
270 268 268 267 267 265 264 261 260 258 257 257 257 256 256 257 258 258 259 259 260 260 261 262 262 262 263 263 264 264 264 265 265 266 267 269 269 270 271 271 272 272 273
272 270 268 267 266 266 265 263 262 262 260 259 258 258 258 258 259 261 262 262 262 263 263 264 263 263 264 264 265 266 266 266 266 267 268 269 269 270 271 272 272 273 273
275 273 271 270 268 266 266 265 264 263 262 261 260 260 260 260 261 262 263 263 263 263 263 264 264 265 266 265 265 266 267 267 268 268 269 270 270 270 271 271 273 273 274
278 276 273 271 270 268 267 266 265 264 263 261 261 261 262 262 262 263 264 264 264 264 265 265 266 266 267 267 266 267 268 268 269 270 270 270 271 271 271 272 273 273 274
278 277 275 273 272 270 268 267 266 266 265 263 262 262 262 263 263 264 264 264 264 264 265 266 267 267 268 268 268 268 268 269 270 271 272 272 271 272 272 273 273 274 274
278 278 277 275 273 271 270 269 267 267 267 266 264 263 263 264 265 265 265 265 265 265 266 267 268 269 269 269 269 269 270 271 271 271 272 273 273 273 274 274 274 274 274
278 278 276 275 275 272 271 271 270 268 268 267 266 265 265 265 266 267 267 266 266 267 267 268 269 269 270 269 270 270 271 272 272 272 273 274 274 274 274 274 274 274 274
278 277 275 274 274 273 271 271 270 269 268 267 267 267 267 267 268 268 268 268 268 268 268 268 269 270 270 271 271 272 273 273 274 274 274 274 274 274 274 273 274 274 274
276 275 273 273 274 273 272 271 271 270 269 269 269 270 269 269 269 269 270 270 270 269 269 269 270 272 272 273 273 274 274 274 275 275 275 275 275 275 275 275 275 275 276
275 274 273 272 273 273 272 271 271 271 270 271 270 271 271 271 270 270 272 273 273 272 272 272 272 273 274 275 275 276 276 276 276 276 276 276 276 276 276 276 276 277 277
276 275 273 272 272 273 272 272 272 272 272 272 272 272 272 272 272 272 273 274 274 273 273 273 274 275 276 277 278 278 278 278 277 277 277 276 276 277 277 278 278 278 279
275 275 274 274 274 274 273 273 273 273 273 273 273 273 273 273 273 273 274 274 275 275 274 274 274 275 277 278 279 279 279 279 279 278 278 278 278 278 278 278 278 278 279
275 276 276 275 275 274 273 273 274 274 274 274 275 275 274 274 274 275 275 276 276 276 276 277 277 278 279 280 280 280 280 280 279 279 279 279 278 278 278 278 279 279 279
Height
5599 5602 5604 5607 5609 5612 5615 5619 5621 5624 5627 5630 5633 5636 5638 5641 5644 5647 5650 5653 5655 5658 5660 5662 5664 5666 5667 5669 5670 5671 5672 5674 5675 5677 5677 5677 5677 5677 5677 5677 5677 5677 5677
5587 5589 5592 5594 5597 5599 5603 5605 5608 5611 5614 5617 5620 5622 5625 5628 5631 5633 5636 5639 5642 5644 5647 5649 5651 5652 5654 5656 5657 5658 5659 5661 5662 5664 5664 5664 5664 5664 5664 5664 5664 5664 5664
5574 5576 5579 5581 5584 5586 5589 5592 5595 5598 5601 5603 5606 5609 5611 5614 5617 5619 5622 5625 5628 5630 5633 5635 5637 5639 5640 5642 5643 5645 5646 5647 5649 5650 5651 5651 5651 5651 5651 5651 5650 5650 5650
5561 5564 5566 5568 5571 5573 5576 5578 5581 5584 5587 5589 5592 5594 5597 5600 5603 5605 5608 5611 5614 5616 5619 5621 5623 5625 5626 5628 5629 5631 5632 5633 5635 5636 5637 5638 5638 5637 5637 5637 5637 5636 5636
5549 5550 5553 5555 5557 5560 5562 5564 5567 5570 5572 5575 5577 5580 5582 5585 5588 5591 5593 5596 5599 5601 5603 5605 5608 5610 5611 5613 5615 5616 5618 5619 5620 5622 5623 5624 5623 5623 5623 5623 5622 5622 5621
5537 5538 5540 5541 5544 5546 5548 5550 5553 5555 5558 5560 5563 5566 5568 5570 5573 5576 5579 5581 5584 5586 5588 5590 5592 5594 5596 5598 5599 5601 5603 5604 5606 5607 5608 5609 5609 5609 5609 5608 5608 5607 5607
5524 5526 5527 5528 5530 5532 5534 5536 5539 5541 5544 5546 5549 5552 5554 5556 5559 5561 5564 5567 5569 5571 5573 5575 5576 5578 5580 5582 5584 5586 5587 5589 5591 5592 5593 5594 5594 5594 5594 5594 5593 5592 5592
5512 5513 5514 5515 5516 5518 5520 5523 5525 5527 5530 5533 5535 5538 5540 5542 5544 5547 5549 5551 5554 5555 5558 5560 5562 5563 5564 5566 5569 5570 5572 5574 5575 5577 5578 5578 5578 5578 5578 5578 5578 5577 5577
5501 5501 5502 5502 5504 5505 5507 5509 5511 5514 5516 5519 5521 5524 5526 5528 5530 5532 5534 5537 5539 5541 5543 5545 5547 5548 5550 5551 5554 5556 5557 5559 5560 5561 5562 5562 5563 5563 5562 5562 5562 5562 5562
5490 5490 5490 5491 5491 5493 5495 5496 5498 5500 5503 5505 5508 5510 5512 5514 5516 5518 5520 5523 5525 5528 5529 5531 5532 5534 5534 5536 5538 5540 5542 5544 5545 5546 5547 5547 5548 5547 5547 5547 5547 5547 5546
5479 5479 5479 5479 5480 5481 5482 5484 5486 5488 5490 5492 5495 5497 5499 5501 5503 5505 5507 5509 5511 5513 5515 5517 5518 5519 5520 5521 5523 5526 5527 5529 5530 5531 5532 5532 5532 5532 5532 5531 5531 5531 5531
5469 5469 5469 5469 5469 5469 5471 5472 5474 5476 5478 5480 5482 5484 5486 5487 5489 5491 5493 5496 5498 5500 5501 5503 5504 5505 5506 5507 5509 5511 5512 5514 5515 5516 5516 5517 5517 5517 5517 5516 5516 5515 5515
5459 5458 5458 5458 5459 5459 5460 5461 5462 5464 5466 5468 5470 5472 5473 5475 5477 5479 5481 5483 5484 5486 5488 5489 5490 5491 5492 5493 5495 5496 5497 5498 5499 5500 5501 5501 5502 5502 5501 5501 5500 5500 5499
5449 5448 5448 5448 5448 5448 5449 5450 5451 5453 5455 5456 5458 5460 5462 5463 5465 5467 5468 5470 5471 5473 5474 5475 5476 5477 5478 5479 5480 5481 5482 5483 5484 5485 5486 5486 5486 5486 5486 5485 5485 5485 5484
5439 5438 5438 5438 5438 5438 5439 5439 5441 5442 5443 5445 5446 5448 5450 5451 5453 5454 5455 5457 5458 5459 5460 5461 5462 5463 5464 5465 5466 5467 5468 5468 5469 5470 5470 5470 5470 5470 5470 5470 5469 5469 5468
5430 5429 5428 5428 5428 5428 5428 5429 5429 5431 5432 5433 5434 5436 5437 5439 5440 5441 5443 5444 5445 5446 5447 5448 5449 5450 5450 5451 5452 5453 5453 5454 5454 5455 5455 5455 5455 5455 5455 5454 5454 5453 5453
5420 5419 5419 5418 5418 5418 5418 5419 5419 5420 5421 5422 5423 5424 5426 5427 5428 5429 5430 5431 5432 5433 5434 5435 5436 5436 5437 5437 5438 5439 5439 5440 5440 5440 5440 5440 5440 5440 5439 5439 5438 5438 5437
5412 5410 5410 5409 5409 5408 5408 5408 5409 5409 5410 5411 5412 5413 5414 5415 5416 5417 5418 5419 5420 5420 5421 5422 5423 5423 5424 5424 5424 5425 5425 5425 5426 5426 5426 5425 5425 5425 5424 5424 5423 5422 5421
5403 5402 5401 5400 5399 5399 5399 5399 5399 5399 5400 5400 5401 5402 5403 5404 5404 5405 5406 5407 5408 5408 5409 5410 5410 5410 5411 5411 5411 5411 5411 5412 5412 5411 5411 5411 5410 5410 5409 5408 5407 5406 5406
5394 5393 5392 5391 5390 5390 5389 5389 5389 5389 5390 5390 5391 5392 5393 5393 5394 5394 5395 5395 5396 5396 5397 5397 5397 5398 5398 5398 5398 5398 5398 5398 5397 5397 5397 5396 5395 5395 5394 5393 5392 5392 5391
5385 5384 5383 5382 5381 5381 5381 5380 5380 5380 5380 5381 5381 5382 5382 5383 5383 5383 5384 5384 5384 5385 5385 5385 5385 5385 5385 5385 5385 5385 5384 5384 5383 5383 5382 5382 5381 5380 5379 5379 5378 5377 5376
5376 5375 5375 5374 5373 5372 5372 5371 5371 5371 5371 5372 5372 5372 5372 5373 5373 5373 5373 5373 5373 5373 5373 5373 5373 5373 5373 5373 5372 5372 5371 5370 5370 5369 5368 5367 5367 5366 5365 5364 5363 5362 5361
5367 5366 5365 5365 5364 5363 5363 5362 5362 5362 5363 5362 5362 5362 5362 5362 5362 5362 5362 5362 5362 5362 5361 5361 5362 5361 5361 5360 5359 5359 5358 5357 5356 5355 5354 5353 5353 5352 5351 5350 5349 5348 5346
5357 5356 5356 5355 5355 5354 5354 5354 5353 5353 5353 5353 5353 5352 5352 5352 5352 5352 5352 5351 5351 5350 5350 5350 5350 5349 5349 5348 5347 5346 5345 5343 5342 5341 5341 5340 5339 5338 5336 5335 5334 5333 5332
5348 5348 5347 5347 5346 5345 5345 5345 5344 5344 5344 5343 5343 5343 5342 5342 5341 5341 5341 5340 5340 5340 5339 5339 5338 5337 5336 5335 5334 5333 5332 5330 5329 5328 5327 5326 5325 5324 5323 5321 5320 5319 5318
5340 5339 5339 5338 5337 5337 5336 5336 5335 5335 5334 5334 5333 5333 5332 5332 5331 5331 5331 5330 5329 5329 5328 5327 5326 5325 5324 5323 5322 5321 5319 5318 5316 5315 5314 5312 5311 5310 5309 5308 5307 5306 5305